Tracking 34142 objects as of 17-May-2026
HD Live streaming from Space Station
objects crossing your sky now

STARLINK-4325

Track STARLINK-4325 now!
10-day predictions
STARLINK-4325 is classified as:


NORAD ID: 53068
Int'l Code: 2022-077AB
Perigee: 555.7 km
Apogee: 557.6 km
Inclination: 97.5 °
Period: 95.6 minutes
Semi major axis: 6927 km
RCS: Unknown
Launch date: July 11, 2022
Source: United States (US)
Launch site: AIR FORCE WESTERN TEST RANGE (AFWTR)
Your satellite tracking list
Your tracking list is empty




NASA's NSSDC Master Catalog

Two Line Element Set (TLE):
1 53068U 22077AB  26137.48569290 -.00001038  00000-0 -67872-4 0  9990
2 53068  97.4826 318.7937 0001382  75.4674 284.6706 15.05648638211334
Source of the keplerian elements: AFSPC